Flag for Germany Weather past 2 weeks in Nuremberg, Bavaria, Germany

Now
66 °F

Passing clouds.


Feels Like: 66 °F
Forecast: 48 / 68 °F
Wind: 8 mph from West

Location: Nuernberg

Current Time: Oct 1, 2014 at 2:57:26 PM

Latest Report: Oct 1, 2014 at 2:20 PM


Visibility: N/A

Pressure: 30.30 "Hg

Humidity: 83%

Dew point: 61 °F

Location of NurembergLocation

Historic Weather in Nuremberg — Graph

°F

Nuremberg temperature yesterday

Maximum temperature yesterday: 68 °F (at 1:20 PM)
Minimum temperature yesterday: 57 °F (at 12:20 AM)
Average temperature yesterday: 62 °F

Past Weeks' High & Low Weather Summary

 TemperatureHumidityPressure
High75 °F (Sep 18, 2:50 PM)100% (Sep 16, 10:20 PM)30.39 "Hg (Sep 16, 10:20 PM)
Low36 °F (Sep 24, 5:20 AM)44% (Sep 29, 4:50 PM)29.89 "Hg (Sep 17, 5:50 PM)
Average58 °F86%30.11 "Hg
* Reported Sep 16 1:20 PM — Oct 1 1:50 PM, Nuremberg, Weather by CustomWeather, © 2014

Note: Actual official high and low records may vary slightly from our data, if they occured in-between our weather recording intervals... More about our weather records

Advertising

Nuremberg weather history for previous 24 hours

 ConditionsComfort  
Time TempWeatherWind HumidityBarometerVisibility
1:50 PM
Oct 1
64 °FPassing clouds.7 mph94%30.30 "HgN/A
1:20 PM63 °FPassing clouds.7 mph100%30.33 "HgN/A
12:50 PM59 °FBroken clouds.8 mph100%30.33 "Hg6 mi
12:20 PM59 °FMore clouds than sun.6 mph100%30.33 "Hg5 mi
11:50 AM57 °FFog.2 mph100%30.33 "Hg4 mi
11:20 AM57 °FFog.2 mph100%30.33 "Hg2 mi
10:50 AM57 °FFog.3 mph100%30.33 "Hg1 mi
10:20 AM57 °FFog.2 mph100%30.33 "Hg1 mi
9:50 AM55 °FFog.1 mph100%30.30 "Hg0 mi
9:20 AM55 °FFog.2 mph100%30.30 "Hg0 mi
8:50 AM55 °FDrizzle. Fog.3 mph100%30.30 "Hg0 mi
8:20 AM55 °FFog.1 mph100%30.30 "Hg0 mi
7:50 AM55 °FFog.3 mph100%30.30 "Hg0 mi
7:20 AM55 °FFog.3 mph100%30.30 "Hg0 mi
6:50 AM55 °FFog.2 mph100%30.27 "Hg1 mi
6:20 AM55 °FFog.2 mph100%30.27 "Hg1 mi
5:50 AM55 °FFog.1 mph100%30.27 "Hg2 mi
5:20 AM57 °FFog.1 mph100%30.27 "Hg4 mi
4:50 AM57 °FPassing clouds.1 mph100%30.27 "Hg4 mi
4:20 AM57 °FPassing clouds.2 mph100%30.30 "Hg4 mi
3:50 AM57 °FPassing clouds.1 mph100%30.30 "Hg4 mi
3:20 AM57 °FPassing clouds.1 mph100%30.30 "Hg4 mi
2:50 AM57 °FPassing clouds.2 mph100%30.30 "Hg5 mi
2:20 AM57 °FFog.1 mph100%30.30 "HgN/A
1:50 AM57 °FFog.1 mph100%30.30 "HgN/A
1:20 AM57 °FPassing clouds.1 mph100%30.30 "HgN/A
12:50 AM57 °FPassing clouds.1 mph100%30.30 "HgN/A
12:20 AM57 °FPartly cloudy.1 mph100%30.30 "HgN/A
11:50 PM
Sep 30
57 °FPassing clouds.1 mph100%30.30 "HgN/A
11:20 PM57 °FPassing clouds.1 mph100%30.30 "HgN/A
10:50 PM59 °FPassing clouds.1 mph94%30.30 "HgN/A
10:20 PM59 °FPartly cloudy.1 mph94%30.30 "HgN/A
9:50 PM61 °FPassing clouds.1 mph94%30.30 "HgN/A
9:20 PM61 °FPassing clouds.2 mph94%30.30 "HgN/A
8:50 PM63 °FPassing clouds.1 mph88%30.30 "HgN/A
8:20 PM63 °FPassing clouds.1 mph88%30.30 "HgN/A
7:50 PM63 °FSunny.1 mph88%30.30 "Hg10 mi
7:20 PM63 °FPartly sunny.2 mph94%30.27 "HgN/A
6:50 PM64 °FPartly sunny.2 mph83%30.27 "HgN/A
6:20 PM64 °FPartly sunny.3 mph83%30.27 "HgN/A
5:50 PM66 °FPartly sunny.3 mph78%30.27 "HgN/A
5:20 PM66 °FPartly sunny.7 mph78%30.27 "HgN/A
4:50 PM66 °FPartly sunny.2 mph78%30.27 "HgN/A
4:20 PM66 °FPartly sunny.2 mph78%30.27 "HgN/A
3:50 PM66 °FPartly sunny.7 mph78%30.27 "HgN/A
3:20 PM66 °FPartly sunny.6 mph78%30.27 "HgN/A
2:50 PM66 °FBroken clouds.6 mph78%30.27 "HgN/A
2:20 PM66 °FPartly sunny.6 mph73%30.27 "HgN/A
Weather by CustomWeather, © 2014

See weather overviewHow to use our weather pages